Humidity-temperature Sensor

Selected Measurement Type: Relative Humidity

 
Relative Humidity [%]     6 entries per hour
Showing data from 3/30/2016 (00:00:00 Z) to 3/23/2016 (00:01:00 Z)
Previous Next [ Day | 3-Days | 7-Days ]
First Last
Prev [ Day | 3-Days | 7-Days ] Next
First Last

Start Time:     :
End Time:     :     
Time (in GMT) :00 :50 :40 :30 :20 :10
Previous Next [ Day | 3-Days | 7-Days ]
First Last
Prev [ Day | 3-Days | 7-Days ] Next
First Last


123 => good data
MM => data is determined as missing
-- => data not received/configured
Back to Top Back to Top
3/30/2016 00:00 to 23:10 -- -- -- -- -- --
3/29/2016 23:00 to 22:10 76.49 76.37 76.99 76.93 76.70 76.95
3/29/2016 22:00 to 21:10 77.57 76.37 78.09 76.95 77.88 77.09
3/29/2016 21:00 to 20:10 77.28 77.68 76.60 77.18 78.63 77.47
3/29/2016 20:00 to 19:10 77.41 78.09 79.00 78.57 77.39 76.43
3/29/2016 19:00 to 18:10 77.26 76.74 78.30 77.90 78.46 77.78
3/29/2016 18:00 to 17:10 76.66 78.13 79.38 78.73 78.53 78.05
3/29/2016 17:00 to 16:10 77.80 78.55 79.25 78.88 76.76 78.55
3/29/2016 16:00 to 15:10 77.63 79.09 79.71 80.29 79.34 79.01
3/29/2016 15:00 to 14:10 79.54 80.96 75.83 75.47 76.60 78.65
3/29/2016 14:00 to 13:10 80.96 83.05 83.41 84.97 86.17 86.65
3/29/2016 13:00 to 12:10 86.04 87.13 87.40 87.31 87.46 87.44
3/29/2016 12:00 to 11:10 86.67 87.10 86.40 87.75 87.62 87.40
3/29/2016 11:00 to 10:10 87.50 87.50 87.33 86.98 87.62 87.58
3/29/2016 10:00 to 9:10 87.10 87.19 87.35 87.29 87.21 86.25
3/29/2016 09:00 to 8:10 86.09 86.07 85.67 85.05 85.13 84.86
3/29/2016 08:00 to 7:10 84.49 84.30 83.80 83.97 84.30 83.95
3/29/2016 07:00 to 6:10 83.35 83.45 83.82 83.62 83.68 83.51
3/29/2016 06:00 to 5:10 82.91 82.83 82.79 83.18 83.45 82.64
3/29/2016 05:00 to 4:10 83.32 83.01 82.83 83.03 82.47 81.54
3/29/2016 04:00 to 3:10 81.71 82.12 82.00 81.64 81.48 81.62
3/29/2016 03:00 to 2:10 79.42 79.75 79.21 79.38 80.90 79.84
3/29/2016 02:00 to 1:10 79.67 79.84 80.09 78.73 80.02 80.54
3/29/2016 01:00 to 0:10 79.84 79.28 78.82 79.77 78.59 79.25
3/29/2016 00:00 to 23:10 78.20 77.68 77.38 77.03 77.63 77.53
3/28/2016 23:00 to 22:10 76.14 75.52 76.89 75.37 76.10 76.70
3/28/2016 22:00 to 21:10 77.22 75.31 74.13 75.89 78.09 80.58
3/28/2016 21:00 to 20:10 80.96 80.33 78.26 78.24 79.00 78.94
3/28/2016 20:00 to 19:10 78.46 79.32 80.52 80.29 80.90 81.14
3/28/2016 19:00 to 18:10 81.39 82.04 82.39 81.77 80.90 82.14
3/28/2016 18:00 to 17:10 82.24 83.16 83.64 83.51 83.20 81.68
3/28/2016 17:00 to 16:10 82.51 83.49 84.07 83.03 83.70 84.88
3/28/2016 16:00 to 15:10 84.74 84.40 83.39 84.09 83.78 84.34
3/28/2016 15:00 to 14:10 83.51 84.01 84.22 84.18 83.91 83.74
3/28/2016 14:00 to 13:10 83.74 83.76 83.60 82.56 83.41 84.01
3/28/2016 13:00 to 12:10 84.96 84.97 85.63 86.02 86.17 86.05
3/28/2016 12:00 to 11:10 86.31 86.63 86.61 87.27 86.81 86.59
3/28/2016 11:00 to 10:10 86.15 85.92 85.61 85.23 85.19 85.32
3/28/2016 10:00 to 9:10 84.59 84.76 84.74 84.67 84.65 84.41
3/28/2016 09:00 to 8:10 84.14 83.86 84.07 83.84 83.60 83.78
3/28/2016 08:00 to 7:10 83.14 82.47 83.28 83.14 82.37 82.51
3/28/2016 07:00 to 6:10 81.87 83.39 82.43 82.18 82.18 82.91
3/28/2016 06:00 to 5:10 83.68 83.20 83.10 82.91 82.64 83.30
3/28/2016 05:00 to 4:10 82.62 82.99 82.87 83.10 83.24 83.47
3/28/2016 04:00 to 3:10 83.70 83.32 82.93 83.24 83.45 83.76
3/28/2016 03:00 to 2:10 84.20 84.76 83.53 83.95 83.05 81.10
3/28/2016 02:00 to 1:10 80.00 80.44 80.87 81.50 81.37 81.66
3/28/2016 01:00 to 0:10 81.62 81.43 81.08 80.83 80.00 79.28
3/28/2016 00:00 to 23:10 79.28 78.84 78.11 78.46 80.31 80.33
3/27/2016 23:00 to 22:10 81.08 82.06 82.56 80.19 80.23 79.59
3/27/2016 22:00 to 21:10 79.44 79.52 79.07 79.50 80.56 80.87
3/27/2016 21:00 to 20:10 80.33 81.02 80.52 80.75 81.46 81.97
3/27/2016 20:00 to 19:10 81.89 82.45 83.05 84.61 84.82 85.82
3/27/2016 19:00 to 18:10 85.40 86.29 85.48 85.59 85.86 86.52
3/27/2016 18:00 to 17:10 86.34 86.11 85.96 86.46 86.23 86.86
3/27/2016 17:00 to 16:10 86.11 86.85 86.50 86.02 85.17 85.59
3/27/2016 16:00 to 15:10 85.48 85.30 86.34 88.06 87.17 87.33
3/27/2016 15:00 to 14:10 87.69 87.10 87.71 86.50 87.40 87.15
3/27/2016 14:00 to 13:10 86.32 87.19 87.60 87.23 88.72 89.55
3/27/2016 13:00 to 12:10 89.35 89.56 88.50 87.42 87.60 87.40
3/27/2016 12:00 to 11:10 87.08 87.91 90.66 91.61 91.24 91.86
3/27/2016 11:00 to 10:10 90.68 91.15 90.12 89.76 89.22 90.03
3/27/2016 10:00 to 9:10 91.30 89.47 86.25 87.98 88.60 87.56
3/27/2016 09:00 to 8:10 86.86 86.15 86.73 90.28 89.93 90.41
3/27/2016 08:00 to 7:10 90.20 90.57 90.22 90.53 90.26 89.91
3/27/2016 07:00 to 6:10 89.70 88.77 88.97 88.60 87.19 87.64
3/27/2016 06:00 to 5:10 86.36 87.13 86.42 86.31 85.84 85.28
3/27/2016 05:00 to 4:10 85.86 86.44 87.77 89.16 88.16 87.56
3/27/2016 04:00 to 3:10 86.67 86.15 86.21 86.63 87.15 86.88
3/27/2016 03:00 to 2:10 87.08 86.46 85.17 83.97 83.72 82.39
3/27/2016 02:00 to 1:10 82.35 82.12 84.80 84.01 83.93 84.03
3/27/2016 01:00 to 0:10 84.40 85.71 85.53 85.28 84.78 85.24
3/27/2016 00:00 to 23:10 84.86 85.30 85.24 85.63 84.78 82.99
3/26/2016 23:00 to 22:10 83.60 82.62 82.29 81.95 82.41 80.60
3/26/2016 22:00 to 21:10 81.62 81.44 80.65 80.92 78.44 78.26
3/26/2016 21:00 to 20:10 79.25 79.27 80.29 79.98 79.01 79.09
3/26/2016 20:00 to 19:10 80.56 79.77 78.94 78.92 80.73 81.27
3/26/2016 19:00 to 18:10 80.56 79.28 80.09 78.73 80.27 82.70
3/26/2016 18:00 to 17:10 81.91 82.24 82.56 82.60 83.05 83.10
3/26/2016 17:00 to 16:10 81.97 80.94 82.14 82.85 82.20 83.43
3/26/2016 16:00 to 15:10 84.16 84.38 83.95 84.07 85.36 85.23
3/26/2016 15:00 to 14:10 84.03 84.05 82.95 81.93 82.20 82.74
3/26/2016 14:00 to 13:10 83.78 86.25 84.57 85.30 86.02 87.89
3/26/2016 13:00 to 12:10 88.21 88.20 88.87 88.93 88.91 88.87
3/26/2016 12:00 to 11:10 88.85 88.62 87.96 88.29 88.14 87.64
3/26/2016 11:00 to 10:10 87.77 88.08 87.87 87.39 87.96 87.52
3/26/2016 10:00 to 9:10 87.31 87.87 87.25 87.13 87.02 86.42
3/26/2016 09:00 to 8:10 86.73 86.31 85.75 85.80 86.23 85.59
3/26/2016 08:00 to 7:10 85.34 85.05 85.51 84.92 85.23 86.09
3/26/2016 07:00 to 6:10 85.30 85.61 85.86 85.98 85.63 85.69
3/26/2016 06:00 to 5:10 85.77 85.44 85.53 85.90 84.88 84.11
3/26/2016 05:00 to 4:10 83.99 83.70 83.74 83.20 82.78 82.66
3/26/2016 04:00 to 3:10 82.74 81.85 81.87 81.91 81.52 81.54
3/26/2016 03:00 to 2:10 81.89 81.29 80.81 80.94 81.10 81.77
3/26/2016 02:00 to 1:10 81.29 80.75 79.81 80.44 80.73 80.35
3/26/2016 01:00 to 0:10 79.92 80.04 80.13 79.23 80.00 79.21
3/26/2016 00:00 to 23:10 78.90 78.24 78.30 79.13 78.34 78.57
3/25/2016 23:00 to 22:10 77.57 78.61 78.67 79.50 79.32 79.82
3/25/2016 22:00 to 21:10 80.98 81.60 82.12 82.27 83.26 82.04
3/25/2016 21:00 to 20:10 82.45 81.79 82.02 81.12 81.12 81.52
3/25/2016 20:00 to 19:10 82.45 82.18 81.85 82.43 81.89 82.25
3/25/2016 19:00 to 18:10 82.45 82.08 84.30 83.45 83.95 84.47
3/25/2016 18:00 to 17:10 84.92 85.24 84.74 84.18 84.84 84.97
3/25/2016 17:00 to 16:10 84.92 85.21 86.00 85.38 85.94 86.83
3/25/2016 16:00 to 15:10 86.44 86.86 87.37 87.81 87.08 87.21
3/25/2016 15:00 to 14:10 87.44 87.08 87.23 88.23 88.48 88.89
3/25/2016 14:00 to 13:10 88.29 87.94 88.75 89.28 89.76 89.22
3/25/2016 13:00 to 12:10 89.01 89.64 89.20 89.72 90.34 90.09
3/25/2016 12:00 to 11:10 90.20 90.22 91.01 90.84 90.63 90.34
3/25/2016 11:00 to 10:10 90.18 89.80 90.59 90.49 90.22 90.20
3/25/2016 10:00 to 9:10 90.22 91.67 90.88 89.22 89.04 89.62
3/25/2016 09:00 to 8:10 88.85 89.01 88.93 89.12 88.72 88.58
3/25/2016 08:00 to 7:10 88.21 87.71 86.65 86.79 86.13 85.92
3/25/2016 07:00 to 6:10 87.15 86.77 87.08 87.17 87.23 87.31
3/25/2016 06:00 to 5:10 87.35 87.96 87.00 86.56 86.54 87.17
3/25/2016 05:00 to 4:10 87.37 87.40 87.00 86.25 86.42 85.34
3/25/2016 04:00 to 3:10 84.53 84.40 83.97 83.76 85.84 86.25
3/25/2016 03:00 to 2:10 86.36 85.90 85.80 86.48 84.70 84.88
3/25/2016 02:00 to 1:10 83.86 83.30 82.25 81.58 80.31 81.08
3/25/2016 01:00 to 0:10 81.85 81.14 81.95 81.41 81.77 83.37
3/25/2016 00:00 to 23:10 82.04 82.14 81.60 80.94 81.87 82.22
3/24/2016 23:00 to 22:10 81.08 81.66 81.73 81.27 82.04 81.56
3/24/2016 22:00 to 21:10 82.52 83.64 82.49 81.52 83.41 83.82
3/24/2016 21:00 to 20:10 83.18 83.03 84.30 84.92 84.32 82.83
3/24/2016 20:00 to 19:10 83.18 81.00 84.65 87.54 87.60 86.05
3/24/2016 19:00 to 18:10 84.14 84.34 85.34 86.00 85.55 85.67
3/24/2016 18:00 to 17:10 85.42 86.02 87.06 87.19 87.08 87.33
3/24/2016 17:00 to 16:10 87.08 86.50 86.73 86.40 86.09 86.13
3/24/2016 16:00 to 15:10 86.50 86.40 86.05 85.84 87.19 86.96
3/24/2016 15:00 to 14:10 86.90 87.23 87.46 87.15 86.92 87.48
3/24/2016 14:00 to 13:10 88.02 88.23 87.62 87.42 87.27 87.87
3/24/2016 13:00 to 12:10 87.98 88.87 89.04 88.87 88.47 89.14
3/24/2016 12:00 to 11:10 88.66 87.46 88.00 88.89 87.77 87.89
3/24/2016 11:00 to 10:10 88.21 88.16 88.83 88.83 89.14 88.68
3/24/2016 10:00 to 9:10 89.33 89.29 88.16 87.52 89.18 89.29
3/24/2016 09:00 to 8:10 89.12 89.12 89.14 89.26 89.49 88.68
3/24/2016 08:00 to 7:10 88.60 87.83 87.66 87.87 87.64 87.62
3/24/2016 07:00 to 6:10 87.60 87.17 88.02 88.43 88.27 87.67
3/24/2016 06:00 to 5:10 88.47 89.04 88.37 88.39 88.50 88.00
3/24/2016 05:00 to 4:10 87.94 87.69 86.75 88.66 87.94 89.02
3/24/2016 04:00 to 3:10 87.69 88.89 89.43 89.68 88.81 88.39
3/24/2016 03:00 to 2:10 89.10 88.99 88.77 88.00 86.83 86.48
3/24/2016 02:00 to 1:10 86.48 87.96 86.34 86.61 87.15 87.33
3/24/2016 01:00 to 0:10 87.54 85.94 87.25 85.94 86.15 86.27
3/24/2016 00:00 to 23:10 86.73 86.07 85.57 86.65 84.36 85.51
3/23/2016 23:00 to 22:10 85.51 85.13 83.60 84.53 84.36 83.95
3/23/2016 22:00 to 21:10 84.41 83.91 85.09 85.53 86.32 86.83
3/23/2016 21:00 to 20:10 85.94 85.07 86.48 85.13 85.50 87.04
3/23/2016 20:00 to 19:10 86.21 87.17 86.73 87.19 87.87 86.00
3/23/2016 19:00 to 18:10 86.67 87.35 87.02 86.09 86.73 85.57
3/23/2016 18:00 to 17:10 85.84 87.35 87.67 87.25 88.14 87.21
3/23/2016 17:00 to 16:10 88.58 86.83 87.77 87.17 87.73 87.69
3/23/2016 16:00 to 15:10 88.18 89.02 88.60 89.26 87.58 87.19
3/23/2016 15:00 to 14:10 87.33 86.96 86.98 87.04 87.25 86.77
3/23/2016 14:00 to 13:10 87.46 87.89 87.71 88.33 87.81 87.83
3/23/2016 13:00 to 12:10 87.79 88.10 87.62 87.75 87.37 87.44
3/23/2016 12:00 to 11:10 87.73 88.43 87.42 88.16 87.67 87.85
3/23/2016 11:00 to 10:10 87.54 88.37 87.66 87.75 87.42 87.31
3/23/2016 10:00 to 9:10 87.79 87.73 87.52 86.96 87.19 87.35
3/23/2016 09:00 to 8:10 86.92 86.67 87.04 86.67 86.27 85.28
3/23/2016 08:00 to 7:10 85.98 85.15 85.59 84.70 85.24 85.01
3/23/2016 07:00 to 6:10 84.47 84.55 84.34 84.55 84.28 84.57
3/23/2016 06:00 to 5:10 84.24 84.32 84.05 82.99 82.33 82.78
3/23/2016 05:00 to 4:10 82.68 82.18 81.85 82.47 82.45 82.76
3/23/2016 04:00 to 3:10 82.31 83.12 82.72 82.54 82.04 82.37
3/23/2016 03:00 to 2:10 81.64 81.23 82.45 82.16 82.14 80.98
3/23/2016 02:00 to 1:10 82.79 81.91 80.38 81.52 80.83 80.81
3/23/2016 01:00 to 0:10 81.21 80.96 81.37 80.81 80.69 80.75